EW4061 Weather Reports


time (UTC)temp
C
wind
direction
speed
KPH
gust
KPH
rain 1hr
cm
rain 24hr
cm
rain mn
cm
humidity
%
barometer
mb
20260508062712 6 0 0.0 0.0 0.00 0.05 0.00 91 1017.6
20260508061833 6 1 0.0 1.6 0.00 0.05 0.00 91 1017.6
20260508060912 6 347 0.0 4.8 0.00 0.05 0.00 90 1017.5
20260508060012 6 0 0.0 0.0 0.00 0.05 0.00 90 1017.5
20260508055412 6 307 0.0 1.6 0.00 0.05 0.00 90 1017.5
20260508054512 6 333 0.0 4.8 0.00 0.05 0.00 90 1017.4
20260508053612 6 0 0.0 0.0 0.00 0.05 0.00 91 1017.3
20260508052733 6 296 0.0 1.6 0.00 0.05 0.00 91 1017.2
20260508051812 6 332 0.0 4.8 0.00 0.05 0.00 91 1017.0
20260508050933 7 14 0.0 4.8 0.00 0.05 0.00 91 1016.9
20260508050012 7 345 0.0 1.6 0.00 0.05 0.00 91 1016.8
20260508045411 7 348 0.0 4.8 0.00 0.05 0.00 91 1016.7
20260508044533 7 25 0.0 4.8 0.00 0.05 0.00 91 1016.7
20260508043611 7 330 0.0 1.6 0.00 0.05 0.00 91 1016.5
20260508042711 7 334 0.0 3.2 0.00 0.05 0.00 90 1016.5
20260508041811 7 25 0.0 4.8 0.00 0.05 0.00 91 1016.4
20260508040911 7 0 0.0 0.0 0.00 0.05 0.00 90 1016.4
20260508040012 7 0 0.0 0.0 0.00 0.05 0.00 90 1016.3
20260508035411 7 0 0.0 0.0 0.00 0.05 0.05 89 1016.1
20260508034511 8 0 0.0 0.0 0.00 0.08 0.05 89 1016.1
20260508033611 8 0 0.0 0.0 0.00 0.08 0.05 89 1016.1
20260508032711 8 0 0.0 0.0 0.00 0.08 0.05 88 1016.2
20260508031811 8 0 0.0 0.0 0.00 0.08 0.05 88 1016.0
20260508030911 8 0 0.0 0.0 0.00 0.08 0.05 88 1015.9
20260508030032 8 0 0.0 0.0 0.00 0.08 0.05 86 1015.8
20260508025432 8 0 0.0 0.0 0.00 0.08 0.05 87 1015.7
20260508024511 9 0 0.0 0.0 0.00 0.08 0.05 86 1015.7
20260508023611 9 337 0.0 1.6 0.00 0.08 0.05 86 1015.6
20260508022711 9 0 0.0 0.0 0.00 0.15 0.05 84 1015.6
20260508021811 10 316 0.0 1.6 0.00 0.25 0.05 83 1015.4
20260508020911 10 351 0.0 1.6 0.00 0.28 0.05 82 1015.2
20260508020011 10 352 0.0 1.6 0.00 0.33 0.05 80 1015.1
20260508015411 10 261 0.0 1.6 0.00 0.33 0.05 80 1014.9
20260508014511 10 261 0.0 1.6 0.00 0.33 0.05 79 1014.7
20260508013632 11 156 0.0 3.2 0.00 0.33 0.05 77 1014.6
20260508012732 11 277 0.0 3.2 0.00 0.33 0.05 75 1014.4
20260508011811 12 321 0.0 1.6 0.00 0.33 0.05 74 1014.2
20260508010910 12 311 0.0 3.2 0.00 0.33 0.05 69 1014.2
20260508010010 12 333 3.2 14.5 0.00 0.33 0.05 67 1014.1
20260508005410 12 328 3.2 14.5 0.00 0.33 0.05 72 1014.0
20260508004510 12 298 0.0 4.8 0.00 0.33 0.05 66 1014.0
20260508003611 13 294 1.6 8.0 0.00 0.33 0.05 66 1013.9
20260508002731 13 300 1.6 6.4 0.00 0.33 0.05 64 1014.0
20260508001810 13 333 0.0 4.8 0.00 0.33 0.05 66 1013.8
20260508000910 13 288 1.6 6.4 0.00 0.33 0.05 63 1013.8
20260508000010 14 292 1.6 4.8 0.00 0.33 0.05 62 1013.8
20260507235410 14 277 1.6 4.8 0.00 0.33 0.05 60 1013.7
20260507234510 14 282 0.0 4.8 0.00 0.33 0.05 62 1013.6
20260507233610 15 280 3.2 9.7 0.00 0.33 0.05 62 1013.4
20260507232711 15 261 1.6 6.4 0.00 0.33 0.05 58 1013.2
20260507231810 15 275 3.2 9.7 0.00 0.33 0.05 57 1013.1
20260507230910 15 301 3.2 8.0 0.00 0.33 0.05 57 1012.9
20260507230031 16 271 1.6 8.0 0.00 0.33 0.05 64 1012.8
20260507225410 16 294 1.6 6.4 0.00 0.33 0.05 61 1012.8
20260507224510 16 263 3.2 6.4 0.00 0.33 0.05 56 1012.7
20260507223610 17 307 1.6 8.0 0.00 0.33 0.05 54 1012.6
20260507222710 17 297 1.6 6.4 0.00 0.33 0.05 59 1012.6
20260507221831 17 284 3.2 9.7 0.00 0.33 0.05 56 1012.5
20260507220910 18 282 3.2 8.0 0.00 0.33 0.05 57 1012.2
20260507220010 18 265 3.2 9.7 0.00 0.33 0.05 58 1012.2
20260507215410 18 262 1.6 6.4 0.00 0.33 0.05 55 1012.1
20260507214531 18 264 1.6 6.4 0.00 0.33 0.05 65 1012.1
20260507213609 18 253 4.8 16.1 0.00 0.33 0.05 56 1012.1
20260507212709 17 299 3.2 6.4 0.00 0.33 0.05 62 1012.1
20260507211830 17 341 3.2 6.4 0.00 0.33 0.05 65 1012.2
20260507210909 16 11 1.6 11.3 0.00 0.33 0.05 69 1012.1
20260507210010 17 264 1.6 8.0 0.00 0.33 0.05 67 1011.9
20260507205409 17 263 1.6 6.4 0.00 0.33 0.05 69 1011.9
20260507204509 17 342 1.6 8.0 0.00 0.33 0.05 69 1011.8
20260507203609 16 302 4.8 12.9 0.00 0.33 0.05 73 1011.8
20260507202709 16 87 3.2 8.0 0.00 0.33 0.05 79 1011.8
20260507201809 15 22 1.6 6.4 0.00 0.33 0.05 78 1011.9
20260507200909 15 1 1.6 8.0 0.00 0.33 0.05 81 1012.1
20260507200009 15 160 1.6 6.4 0.00 0.33 0.05 81 1012.2
20260507195409 15 135 0.0 1.6 0.00 0.33 0.05 81 1012.3
20260507194509 15 137 0.0 3.2 0.00 0.33 0.05 82 1012.5
20260507193609 14 255 0.0 4.8 0.00 0.33 0.05 85 1012.8
20260507192709 14 294 1.6 4.8 0.00 0.33 0.05 79 1013.0
20260507191809 14 18 0.0 1.6 0.00 0.33 0.05 85 1012.9
20260507190909 14 99 0.0 1.6 0.00 0.33 0.05 82 1013.2
20260507190009 14 57 0.0 3.2 0.00 0.33 0.05 85 1013.2
20260507185410 13 317 0.0 3.2 0.00 0.33 0.05 80 1013.3
20260507184509 13 283 1.6 6.4 0.00 0.33 0.05 80 1013.4
20260507183609 14 268 0.0 4.8 0.00 0.33 0.05 84 1013.5
20260507182709 13 262 0.0 3.2 0.03 0.33 0.05 84 1013.4
20260507181809 13 318 0.0 4.8 0.03 0.33 0.05 87 1013.4
20260507180909 13 292 0.0 3.2 0.03 0.33 0.05 86 1013.3
20260507180009 13 237 0.0 3.2 0.05 0.33 0.05 87 1013.5
20260507175408 13 214 0.0 1.6 0.05 0.33 0.05 88 1013.4
20260507174508 13 214 0.0 1.6 0.05 0.33 0.05 89 1013.5
20260507173608 13 249 0.0 1.6 0.05 0.33 0.05 90 1013.5
20260507172708 13 295 1.6 3.2 0.03 0.30 0.03 89 1013.5
20260507171808 13 320 0.0 3.2 0.03 0.30 0.03 89 1013.5
20260507170908 13 58 0.0 8.0 0.03 0.30 0.03 87 1013.5
20260507170029 14 0 0.0 0.0 0.00 0.30 0.00 87 1013.6
20260507165408 14 62 1.6 6.4 0.00 0.30 0.00 84 1013.5
20260507164529 14 57 0.0 3.2 0.00 0.30 0.00 85 1013.5
20260507163608 14 70 0.0 3.2 0.00 0.30 0.00 83 1013.5
20260507162708 14 130 0.0 3.2 0.00 0.30 0.00 82 1013.6
20260507161808 14 124 0.0 3.2 0.00 0.30 0.00 84 1013.5
20260507160908 14 80 0.0 4.8 0.00 0.30 0.00 84 1013.5
20260507160029 14 211 0.0 4.8 0.00 0.30 0.00 83 1013.5
20260507155408 14 194 1.6 4.8 0.00 0.30 0.00 82 1013.6
20260507154529 14 93 0.0 4.8 0.00 0.30 0.00 82 1013.9
20260507153608 14 193 0.0 4.8 0.00 0.30 0.00 83 1013.9
20260507152708 14 298 0.0 6.4 0.00 0.30 0.00 86 1013.9
20260507151808 14 154 0.0 4.8 0.00 0.30 0.00 84 1013.9
20260507150908 15 228 0.0 6.4 0.00 0.30 0.00 87 1013.8
20260507150008 15 163 0.0 3.2 0.00 0.30 0.00 86 1013.8
20260507145408 15 144 0.0 3.2 0.00 0.30 0.00 87 1013.6
20260507144508 14 41 0.0 3.2 0.00 0.30 0.00 87 1013.7
20260507143608 14 16 0.0 4.8 0.00 0.30 0.00 86 1013.6
20260507142708 15 214 0.0 4.8 0.00 0.30 0.00 87 1013.5
20260507141808 15 137 0.0 4.8 0.00 0.30 0.00 88 1013.6
20260507140907 15 91 0.0 4.8 0.00 0.30 0.00 87 1013.7
20260507140008 15 167 0.0 4.8 0.00 0.30 0.00 90 1013.4
20260507135429 15 195 0.0 3.2 0.00 0.30 0.00 89 1013.3
20260507134507 15 163 0.0 3.2 0.00 0.33 0.00 91 1013.6
20260507133607 15 117 1.6 4.8 0.00 0.38 0.00 90 1014.0
20260507132707 15 95 0.0 3.2 0.00 0.38 0.00 91 1013.9
20260507131807 15 81 1.6 9.7 0.00 0.38 0.00 90 1013.9
20260507130928 15 11 0.0 3.2 0.00 0.38 0.00 88 1014.0
20260507130007 15 82 0.0 3.2 0.00 0.38 0.00 90 1013.9
20260507125407 15 201 0.0 4.8 0.00 0.38 0.00 91 1013.7
20260507124528 15 165 0.0 1.6 0.00 0.38 0.00 91 1013.8
20260507123607 15 154 0.0 3.2 0.00 0.38 0.00 91 1013.8
20260507122707 14 116 0.0 3.2 0.00 0.38 0.00 91 1014.0
20260507121807 14 158 0.0 6.4 0.00 0.38 0.00 92 1013.9
20260507120907 15 90 0.0 3.2 0.00 0.38 0.00 92 1013.7
20260507120007 15 278 0.0 4.8 0.00 0.38 0.00 92 1013.8
20260507115407 15 53 0.0 3.2 0.00 0.38 0.00 92 1013.8
20260507114507 15 0 0.0 0.0 0.00 0.38 0.00 93 1013.6
20260507113607 14 0 0.0 0.0 0.00 0.38 0.00 91 1013.5
20260507112707 14 0 0.0 0.0 0.00 0.38 0.00 91 1013.4
20260507111807 14 316 0.0 1.6 0.00 0.38 0.00 92 1013.3
20260507110907 14 316 0.0 4.8 0.00 0.38 0.00 92 1013.3
20260507110028 14 0 0.0 0.0 0.00 0.38 0.00 93 1013.1
20260507105407 14 64 0.0 4.8 0.00 0.38 0.00 93 1013.2
20260507104507 14 96 0.0 3.2 0.00 0.38 0.00 94 1013.1
20260507103607 15 230 0.0 3.2 0.00 0.38 0.00 93 1012.8
20260507102706 15 27 0.0 1.6 0.00 0.38 0.00 93 1012.9
20260507101806 15 27 0.0 1.6 0.00 0.38 0.00 93 1012.9
20260507100906 15 0 0.0 0.0 0.00 0.38 0.00 93 1013.1
20260507100006 15 318 0.0 3.2 0.00 0.38 0.00 94 1013.0
20260507095406 15 328 0.0 1.6 0.00 0.38 0.00 94 1012.8
20260507094528 15 327 0.0 3.2 0.00 0.38 0.00 94 1013.1
20260507093607 15 0 0.0 0.0 0.00 0.38 0.00 94 1012.9
20260507092706 15 316 0.0 1.6 0.00 0.38 0.00 94 1012.9
20260507091806 15 316 0.0 1.6 0.00 0.38 0.00 94 1013.0
20260507090906 15 340 0.0 3.2 0.00 0.38 0.00 93 1012.9
20260507090006 15 36 1.6 6.4 0.00 0.38 0.00 93 1012.2
20260507085427 15 357 1.6 6.4 0.00 0.38 0.00 93 1012.1
20260507084506 15 325 1.6 3.2 0.00 0.38 0.00 93 1012.5
20260507083627 15 327 0.0 1.6 0.00 0.38 0.00 93 1012.9
20260507082727 15 354 1.6 3.2 0.00 0.38 0.00 94 1013.1
20260507081806 15 27 0.0 1.6 0.00 0.38 0.00 94 1012.7
20260507080927 15 27 0.0 1.6 0.00 0.38 0.00 94 1012.8
20260507080006 15 27 0.0 1.6 0.00 0.38 0.00 94 1013.0
20260507075406 15 27 0.0 1.6 0.00 0.38 0.00 94 1013.0
20260507074506 16 27 0.0 3.2 0.00 0.38 0.00 94 1012.9
20260507073606 16 53 0.0 3.2 0.00 0.38 0.00 95 1013.1
20260507072727 16 78 0.0 4.8 0.00 0.38 0.00 95 1012.8
20260507071805 16 0 0.0 0.0 0.00 0.38 0.00 95 1012.9
20260507070927 16 159 0.0 3.2 0.00 0.38 0.00 95 1012.7
20260507070026 16 212 1.6 3.2 0.00 0.38 0.00 95 1012.6
20260507065405 16 228 0.0 3.2 0.00 0.38 0.00 95 1013.0
20260507064506 16 0 0.0 0.0 0.00 0.38 0.00 95 1012.7
20260507063606 16 282 0.0 3.2 0.00 0.38 0.00 94 1012.9